Miscellaneous Local Product
Issued by NWS North Platte, NE

Home | Current Version | Previous Version | Text Only | Print | Product List | Glossary On
Versions: 1 2 3 4 5 6 7 8 9 10 11 12 13 14 15 16 17 18 19 20 21 22 23 24 25 26 27 28 29 30 31 32 33 34 35 36 37 38 39 40 41 42 43 44 45 46 47 48 49 50
000
AXUS43 KLBF 271210
MISLBF


WESTERN AND NORTH CENTRAL NEBRASKA HOURLY WEATHER ROUNDUP
NATIONAL WEATHER SERVICE NORTH PLATTE NE
700 AM CDT FRI MAY 27 2016

NOTE: "FAIR" INDICATES FEW OR NO CLOUDS BELOW 12,000 FEET WITH NO
SIGNIFICANT WEATHER AND/OR OBSTRUCTIONS TO VISIBILITY.

NOTE: STATIONS NOT REPORTING VARIABLES SUCH AS SKY/WEATHER OR
PRESSURE ARE PROVIDED BY RAWS AND APRS NETWORKS AND ARE NOT UNDER
NATIONAL WEATHER SERVICE QUALITY CONTROL.

...OBSERVATIONS IN AND NEAR THE EASTERN PANHANDLE OF NEBRASKA...

CITY           SKY/WX    TMP DP  RH WIND       PRES   REMARKS
PINE RIDGE     CLOUDY    50  44  80 E6        29.83R
CHADRON        PTCLDY    46  44  93 W3        29.84S
ALLIANCE       CLOUDY    51  48  89 N7        29.80F
SIDNEY         RAIN      50  48  93 N14       29.80R FOG
CRESCENT LAKE    N/A     52  52 100 NE3         N/A
BIG SPRINGS      N/A     55  53  93 N6          N/A
$$

...OBSERVATIONS IN NORTHERN NEBRASKA AND FAR SOUTHERN SOUTH DAKOTA...

CITY           SKY/WX    TMP DP  RH WIND       PRES   REMARKS
WINNER         MOCLDY    57  52  83 N7        29.77R
VALENTINE      CLOUDY    55  52  89 SE5       29.76R
THEDFORD       CLOUDY    55  53  95 NW3       29.78R
AINSWORTH      DRIZZLE   56  52  86 NW3       29.76R
O`NEILL        PTCLDY    60  57  92 S6        29.74R
ORD            CLEAR     57  55  93 W5        29.73R
BROKEN BOW     CLOUDY    57  54  89 CALM      29.75R
BUTTE            N/A     57  55  92 NW9         N/A
CHAMBERS         N/A     58  56  94 SW3         N/A
EWING            N/A     60  58  93 CALM        N/A
$$

...OBSERVATIONS IN SOUTHWEST NEBRASKA AND FAR NORTHEAST COLORADO...

CITY           SKY/WX    TMP DP  RH WIND       PRES   REMARKS
IMPERIAL       CLOUDY    53  51  93 NE5       29.75R
OGALLALA       CLOUDY    55  53  91 NE3       29.76R
NORTH PLATTE   CLOUDY    56  55  97 CALM      29.76R
MCCOOK         CLOUDY    56  54  93 N3        29.74R
LEXINGTON      CLOUDY    57  54  92 CALM      29.74R
PAXTON           N/A     56  54  92 E5          N/A
STAPLETON        N/A     55  54  96 CALM        N/A
GOTHENBURG       N/A     58  53  82 CALM        N/A
CALLAWAY         N/A     54  53  96 NW5         N/A
$$

...OBSERVATIONS IN CENTRAL LINCOLN COUNTY AREA...

CITY           SKY/WX    TMP DP  RH WIND       PRES   REMARKS
N.P. AIRPORT   CLOUDY    56  55  97 CALM      29.76R
N.P. DOWNTOWN    N/A     56  54  93 CALM        N/A
N.P. HILLCREST   N/A     56  55  95 CALM        N/A
$$

...SOME OBSERVATIONS FROM AROUND THE REGION...

CITY           SKY/WX    TMP DP  RH WIND       PRES   REMARKS
DENVER         CLOUDY    48  43  82 NW22G28   29.83F
LARAMIE        CLOUDY    39  38  96 NW7       29.96S WCI  34
CHEYENNE       CLOUDY    45  36  70 NW16      29.88F
SCOTTSBLUFF    CLOUDY    51  47  86 N12       29.83S
RAPID CITY     CLOUDY    50  43  77 NW7       29.85S
BISMARCK       FOG       50  50 100 N3        29.84S VSB 1/2
PIERRE         CLOUDY    53  48  83 NW13      29.74S
SIOUX FALLS    CLOUDY    61  55  81 SE5       29.73F
OMAHA          PTSUNNY   63  59  87 N6        29.74R
GRAND ISLAND   MOCLDY    58  57  97 N3        29.74R
KANSAS CITY    PTSUNNY   62  60  93 E9        29.70S
WICHITA        CLOUDY    60  57  89 SE13      29.71R
OKLAHOMA CITY  LGT RAIN  67  62  84 S17G29    29.70F
DALLAS         TSTM      67  62  84 N21G30    29.75F
AMARILLO       PTCLDY    49  40  71 NW13      29.77S
DODGE CITY     CLOUDY    59  58  96 SE15      29.66S
HAYS           CLOUDY    28 N/A N/A S5        29.68R WCI  23
GOODLAND       CLOUDY    51  50  96 CALM      29.74R
$$




USA.gov is the U.S. government's official web portal to all federal, state and local government web resources and services.